Simultaneous Nadir Overpasses (SNOs) Predictions

Prediction of SNOs between METOP-A and NOAA-19 Satellite Orbit:

Table of predicted SNOs for the next 14.0 days since TLE Epoch: 5/1/2015
Index Date (METOP-A) Time (METOP-A) Lat,Lon (METOP-A) SZA (METOP-A ) Date (NOAA-19) Time (NOAA-19) Lat,Lon (NOAA-19) SZA (NOAA-19 ) Distance(km) Time Diff (sec)
1 05/05/2015 15:05:14 -75.01, 130.77 121.34 05/05/2015 15:04:00 -74.99, 130.31 121.35 13.49 74
2 05/05/2015 15:55:56 74.91, -62.19 58.55 05/05/2015 15:54:57 74.89, -62.13 58.54 2.89 59
3 05/05/2015 16:46:38 -74.90, 105.10 121.47 05/05/2015 16:46:01 -74.91, 105.04 121.45 2.50 37
4 05/05/2015 17:37:18 74.89, -87.59 58.51 05/05/2015 17:37:00 74.90, -87.67 58.53 2.82 18
5 05/05/2015 18:28:00 -74.88, 79.70 121.51 05/05/2015 18:28:03 -74.88, 79.63 121.51 2.18 3
6 05/05/2015 19:18:39 74.87,-112.99 58.47 05/05/2015 19:19:01 74.87,-113.08 58.47 2.74 22
7 05/05/2015 20:09:21 -74.86, 54.31 121.55 05/05/2015 20:10:04 -74.84, 54.22 121.57 2.86 43
8 05/05/2015 21:00:01 74.85,-138.38 58.43 05/05/2015 21:01:03 74.83,-138.49 58.42 3.50 62
9 05/05/2015 21:50:50 -74.50, 28.00 121.92 05/05/2015 21:52:00 -74.53, 29.62 121.91 48.15 70




NCC Satellite Simultaneous Nadir Overpasses (SNOs) Prediction Service
